CW8095 Weather Reports


time (UTC)temp
C
wind
direction
speed
KPH
gust
KPH
rain 1hr
cm
rain 24hr
cm
rain mn
cm
humidity
%
barometer
mb
20260506224517 19 240 3.2 6.4 0.00 0.00 0.00 59 1013.9
20260506223548 20 8 3.2 11.3 0.00 0.00 0.00 58 1013.9
20260506222523 20 281 4.8 11.3 0.00 0.00 0.00 56 1013.6
20260506221518 20 81 3.2 12.9 0.00 0.00 0.00 57 1013.4
20260506220529 20 283 4.8 17.7 0.00 0.00 0.00 57 1013.8
20260506215544 20 50 3.2 9.7 0.00 0.00 0.00 57 1013.5
20260506214519 20 326 4.8 12.9 0.00 0.00 0.00 56 1013.7
20260506213530 20 261 4.8 14.5 0.00 0.00 0.00 55 1013.6
20260506212525 21 54 3.2 9.7 0.00 0.00 0.00 54 1013.5
20260506211520 20 28 4.8 12.9 0.00 0.00 0.00 54 1013.7
20260506210515 21 326 4.8 14.5 0.00 0.00 0.00 52 1013.6
20260506205606 21 339 4.8 14.5 0.00 0.00 0.00 53 1013.8
20260506204521 21 335 3.2 16.1 0.00 0.00 0.00 54 1013.8
20260506203516 21 260 4.8 16.1 0.00 0.00 0.00 54 1014.0
20260506202527 20 354 4.8 14.5 0.00 0.00 0.00 55 1014.4
20260506201522 19 10 4.8 11.3 0.00 0.00 0.00 58 1014.2
20260506200537 19 16 4.8 17.7 0.00 0.00 0.00 57 1014.6
20260506195608 19 323 4.8 11.3 0.00 0.00 0.00 59 1014.7
20260506194523 18 58 4.8 14.5 0.00 0.00 0.00 60 1014.6
20260506193518 18 28 4.8 9.7 0.00 0.00 0.00 61 1014.6
20260506192529 17 246 4.8 16.1 0.00 0.00 0.00 63 1014.6
20260506191525 17 252 4.8 14.5 0.00 0.00 0.00 65 1014.7
20260506190520 16 209 3.2 6.4 0.00 0.00 0.00 65 1015.1
20260506185530 17 259 8.0 14.5 0.00 0.00 0.00 64 1015.2
20260506184525 17 254 6.4 12.9 0.00 0.00 0.00 65 1015.0
20260506183541 16 231 1.6 9.7 0.00 0.00 0.00 66 1014.8
20260506182516 16 322 1.6 6.4 0.00 0.00 0.00 66 1015.0
20260506181526 16 49 4.8 14.5 0.00 0.00 0.00 65 1015.0
20260506180521 17 284 6.4 16.1 0.00 0.00 0.00 64 1014.4
20260506175537 17 13 8.0 22.5 0.00 0.00 0.00 65 1013.6
20260506174648 17 38 9.7 35.4 0.00 0.00 0.00 64 1013.2
20260506173522 17 360 4.8 17.7 0.00 0.00 0.00 66 1013.5
20260506172518 17 75 4.8 16.1 0.00 0.00 0.00 66 1014.1
20260506171528 16 21 8.0 14.5 0.00 0.00 0.00 67 1014.3
20260506170523 16 351 6.4 17.7 0.00 0.00 0.00 69 1014.5
20260506165518 15 27 4.8 12.9 0.00 0.00 0.00 70 1015.0
20260506164529 16 28 8.0 22.5 0.00 0.00 0.00 68 1014.8
20260506163544 16 49 9.7 22.5 0.00 0.00 0.00 66 1014.2
20260506162519 18 23 8.0 22.5 0.00 0.00 0.00 62 1014.3
20260506161549 18 61 8.0 16.1 0.00 0.00 0.00 61 1014.1
20260506160524 17 68 9.7 20.9 0.00 0.00 0.00 65 1014.4
20260506155520 15 25 8.0 16.1 0.00 0.00 0.00 73 1014.6
20260506154515 15 63 1.6 6.4 0.00 0.00 0.00 75 1014.7
20260506153546 14 33 4.8 11.3 0.00 0.00 0.00 74 1014.3
20260506152601 14 321 4.8 14.5 0.00 0.00 0.00 75 1014.8
20260506151516 14 291 4.8 16.1 0.00 0.00 0.00 77 1014.8
20260506150526 13 286 4.8 16.1 0.00 0.00 0.00 75 1015.1
20260506145521 14 269 8.0 16.1 0.00 0.00 0.00 72 1016.3
20260506144516 14 250 4.8 11.3 0.00 0.00 0.00 71 1015.9
20260506143526 14 260 4.8 11.3 0.00 0.00 0.00 71 1015.3
20260506142521 14 134 4.8 17.7 0.00 0.00 0.00 70 1014.4
20260506141517 15 357 6.4 20.9 0.00 0.00 0.00 68 1014.2
20260506140527 15 0 6.4 17.7 0.00 0.00 0.00 66 1014.2
20260506135522 15 263 9.7 17.7 0.00 0.00 0.00 66 1014.2
20260506134537 15 275 6.4 22.5 0.00 0.00 0.00 64 1014.0
20260506133528 15 257 6.4 14.5 0.00 0.00 0.00 64 1013.8
20260506132603 15 275 4.8 14.5 0.00 0.00 0.00 64 1013.7
20260506131518 15 221 4.8 14.5 0.00 0.00 0.00 65 1013.1
20260506130528 15 244 8.0 17.7 0.00 0.00 0.00 65 1013.1
20260506125523 15 45 4.8 12.9 0.00 0.00 0.00 65 1013.0
20260506124519 15 242 6.4 14.5 0.00 0.00 0.00 66 1013.1
20260506123529 15 245 6.4 16.1 0.00 0.00 0.00 67 1012.8
20260506122523 15 250 6.4 17.7 0.00 0.00 0.00 67 1012.7
20260506121519 15 247 8.0 17.7 0.00 0.00 0.00 67 1012.6
20260506120529 15 325 4.8 12.9 0.00 0.00 0.00 68 1012.4
20260506115524 15 238 3.2 11.3 0.00 0.00 0.00 68 1012.5
20260506114519 15 9 6.4 16.1 0.00 0.00 0.00 68 1012.3
20260506113529 15 227 4.8 11.3 0.00 0.00 0.00 68 1012.1
20260506112525 16 245 8.0 20.9 0.00 0.00 0.00 68 1011.9
20260506111519 16 259 4.8 12.9 0.00 0.00 0.00 68 1011.6
20260506110530 16 259 8.0 14.5 0.00 0.00 0.00 68 1011.7
20260506105525 16 22 4.8 12.9 0.00 0.00 0.00 69 1011.3
20260506104521 16 11 6.4 12.9 0.00 0.00 0.00 69 1011.3
20260506103516 16 331 4.8 11.3 0.00 0.00 0.00 68 1011.1
20260506102526 16 222 4.8 11.3 0.00 0.00 0.00 68 1010.9
20260506101521 16 275 3.2 6.4 0.00 0.00 0.00 68 1010.7
20260506100516 16 7 4.8 16.1 0.00 0.00 0.00 67 1010.6
20260506095527 16 37 6.4 14.5 0.00 0.00 0.00 67 1010.5
20260506094542 16 32 4.8 17.7 0.00 0.00 0.00 67 1010.2
20260506093537 16 23 8.0 14.5 0.00 0.00 0.00 68 1010.3
20260506092548 17 35 6.4 12.9 0.00 0.00 0.00 68 1010.3
20260506091522 17 359 6.4 14.5 0.00 0.00 0.00 68 1010.3
20260506090558 17 40 4.8 12.9 0.00 0.00 0.00 67 1010.2
20260506085528 17 49 4.8 11.3 0.00 0.00 0.00 67 1010.0
20260506084543 17 13 4.8 12.9 0.00 0.00 0.00 67 1009.9
20260506083537 17 10 8.0 16.1 0.00 0.00 0.00 67 1009.8
20260506082527 17 15 6.4 12.9 0.00 0.00 0.00 67 1009.9
20260506081521 18 60 3.2 9.7 0.00 0.00 0.00 66 1009.7
20260506080517 18 56 6.4 12.9 0.00 0.00 0.00 66 1009.4
20260506073517 18 26 4.8 11.3 0.00 0.00 0.00 66 1009.7
20260506072527 18 53 6.4 12.9 0.00 0.00 0.00 67 1009.8
20260506071522 18 72 8.0 12.9 0.00 0.00 0.00 67 1009.7
20260506070518 18 50 4.8 16.1 0.00 0.00 0.00 67 1009.8
20260506061543 20 43 4.8 12.9 0.00 0.00 0.00 66 1009.4
20260506060529 20 23 4.8 11.3 0.00 0.00 0.00 66 1009.4
20260506050529 21 289 4.8 12.9 0.00 0.00 0.00 63 1009.3
20260506044524 22 26 4.8 11.3 0.00 0.00 0.00 63 1009.2
20260506043536 22 332 3.2 9.7 0.00 0.00 0.00 63 1009.2
20260506042531 22 314 4.8 14.5 0.00 0.00 0.00 62 1009.2
20260506041518 22 248 4.8 16.1 0.00 0.00 0.00 61 1009.2
20260506040530 22 260 4.8 14.5 0.00 0.00 0.00 60 1008.8
20260506035523 23 82 4.8 11.3 0.00 0.00 0.00 59 1008.7
20260506034518 23 220 4.8 14.5 0.00 0.00 0.00 59 1008.6
20260506033557 23 40 3.2 9.7 0.00 0.00 0.00 58 1008.2
20260506032530 23 240 3.2 12.9 0.00 0.00 0.00 58 1008.0
20260506031531 24 291 3.2 11.3 0.00 0.00 0.00 58 1008.1
20260506030530 24 221 4.8 11.3 0.00 0.00 0.00 57 1008.1
20260506025525 25 252 8.0 20.9 0.00 0.00 0.00 57 1007.9
20260506024520 25 254 6.4 17.7 0.00 0.00 0.00 57 1007.6
20260506023515 25 38 4.8 14.5 0.00 0.00 0.00 56 1007.3
20260506022526 25 23 4.8 17.7 0.00 0.00 0.00 56 1007.0
20260506021521 26 358 4.8 11.3 0.00 0.00 0.00 56 1006.6
20260506020536 26 18 4.8 12.9 0.00 0.00 0.00 55 1006.3
20260506015547 27 27 6.4 14.5 0.00 0.00 0.00 54 1006.2
20260506014522 27 71 8.0 12.9 0.00 0.00 0.00 54 1005.9
20260506013517 27 51 4.8 11.3 0.00 0.00 0.00 53 1005.7
20260506012548 28 31 6.4 14.5 0.00 0.00 0.00 53 1005.6
20260506011523 28 82 3.2 9.7 0.00 0.00 0.00 52 1005.8
20260506010558 29 278 1.6 3.2 0.00 0.00 0.00 52 1005.5
20260506005529 29 117 0.0 4.8 0.00 0.00 0.00 53 1005.1
20260506004523 30 266 1.6 4.8 0.00 0.00 0.00 59 1005.2
20260506003519 30 167 1.6 4.8 0.00 0.00 0.00 62 1005.0
20260506002549 30 144 1.6 4.8 0.00 0.00 0.00 61 1005.0
20260506001524 30 141 4.8 11.3 0.00 0.00 0.00 61 1004.8
20260506000519 31 158 3.2 11.3 0.00 0.00 0.00 58 1004.4
20260505235529 31 163 4.8 14.5 0.00 0.00 0.00 58 1004.4
20260505234523 31 180 6.4 16.1 0.00 0.00 0.00 57 1004.2
20260505233519 32 147 8.0 20.9 0.00 0.00 0.00 55 1004.4
20260505232529 32 163 8.0 17.7 0.00 0.00 0.00 53 1004.1
20260505231523 33 154 4.8 12.9 0.00 0.00 0.00 52 1004.2
20260505230538 34 158 8.0 17.7 0.00 0.00 0.00 51 1004.1
20260505225528 33 147 8.0 20.9 0.00 0.00 0.00 51 1003.9